Weather History for Springfield, MO

Change the Weather History Date:

Monday, December 31, 2012

  Actual Average Record
Temperature  
Mean Temperature 34 °F 33 °F  
Max Temperature 36 °F 42 °F 76 °F (1951)
Min Temperature 32 °F 23 °F -6 °F (1976)
Degree Days  
Heating Degree Days 31 32  
Month to date heating degree days 730 932  
Since 1 July heating degree days 1647 1810  
Cooling Degree Days 0 0  
Month to date cooling degree days 2 0  
Year to date cooling degree days 1766 1389  
Moisture  
Dew Point 32 °F    
Average Humidity 74    
Maximum Humidity 100    
Minimum Humidity 47    
Precipitation  
Precipitation 0.16 in 0.08 in 1.90 in (1984)
Month to date precipitation 1.10 3.04  
Year to date precipitation 30.94 45.57  
Snow  
Snow 1.20 in - - ()
Month to date snowfall 1.3  
Since 1 July snowfall 1.3  
Snow Depth 0.00 in    
Sea Level Pressure  
Sea Level Pressure 30.09 in    
Wind  
Wind Speed 7 mph (SE)    
Max Wind Speed 13 mph    
Max Gust Speed 17 mph    
Visibility 3 miles    
Events Fog , Rain , Snow    
T = Trace of Precipitation, MM = Missing Value Source: NWS Daily Summary

Daily Weather History Graph

Daily Weather History Graph

Search for Another Location

Airport:

Trip Planner

Search our weather history database for the weather conditions in past years. The results will help you decide how hot, cold, wet, or windy it might be!

Date:

Astronomy

Dec. 31, 2012 Rise Set
Actual Time 7:27 AM CST 5:06 PM CST
Civil Twilight 6:58 AM CST 5:35 PM CST
Nautical Twilight 6:25 AM CST 6:08 PM CST
Astronomical Twilight 5:54 AM CST 6:39 PM CST
Moon 8:32 PM CST (12/31) 9:13 AM CST (12/31)
Length of Visible Light 10h 37m
Length of Day
9h 39m
Waning Gibbous, 90% of the Moon is Illuminated
Dec 31
Waning Gibbous
Jan 4
Last Quarter
Jan 11
New
Jan 18
First Quarter
Jan 26
Full

Hourly Weather History & Observations

Time (CST) Temp. Windchill Dew Point Humidity Pressure Visibility Wind Dir Wind Speed Gust Speed Precip Events Conditions
12:52 AM 35.1 °F 27.9 °F 19.0 °F 52% 30.23 in 10.0 mi South 9.2 mph - N/A   Clear
1:52 AM 35.1 °F 27.9 °F 19.0 °F 52% 30.20 in 10.0 mi SSE 9.2 mph - N/A   Overcast
2:52 AM 35.1 °F 27.4 °F 19.9 °F 54% 30.20 in 10.0 mi South 10.4 mph - N/A   Overcast
3:52 AM 33.1 °F 24.9 °F 28.0 °F 82% 30.19 in 7.0 mi South 10.4 mph - 0.03 in Rain Light Freezing Rain
4:05 AM 33.1 °F 25.5 °F 28.9 °F 85% 30.16 in 6.0 mi South 9.2 mph - 0.01 in Snow Light Snow
4:20 AM 32.0 °F 24.2 °F 30.0 °F 92% 30.16 in 1.8 mi South 9.2 mph - 0.03 in Snow Light Snow
4:27 AM 32.0 °F 24.8 °F 30.0 °F 92% 30.17 in 1.2 mi South 8.1 mph - 0.03 in Snow Light Snow
4:52 AM 32.0 °F 25.6 °F 30.0 °F 92% 30.19 in 2.0 mi South 6.9 mph - 0.05 in Snow Light Snow
5:05 AM 32.0 °F 25.6 °F 30.0 °F 92% 30.15 in 1.8 mi South 6.9 mph - 0.01 in Snow Light Snow
5:25 AM 32.0 °F 25.6 °F 30.9 °F 96% 30.17 in 2.0 mi South 6.9 mph - 0.02 in Snow Light Snow
5:47 AM 32.0 °F 24.2 °F 30.2 °F 93% 30.17 in 1.8 mi South 9.2 mph - 0.03 in Snow Light Snow
5:52 AM 32.0 °F 24.2 °F 30.9 °F 96% 30.20 in 1.5 mi South 9.2 mph - 0.03 in Snow Light Snow
6:48 AM 32.0 °F 25.6 °F 30.2 °F 93% 30.16 in 1.0 mi South 6.9 mph - 0.02 in Snow Light Snow
6:52 AM 32.0 °F 25.6 °F 30.9 °F 96% 30.18 in 1.0 mi South 6.9 mph - 0.02 in Snow Light Snow
6:57 AM 32.0 °F 24.8 °F 30.9 °F 96% 30.15 in 3.0 mi South 8.1 mph - 0.01 in Snow Light Snow
7:10 AM 32.0 °F 24.2 °F 30.9 °F 96% 30.15 in 3.0 mi South 9.2 mph - 0.01 in Snow Light Snow
7:17 AM 33.1 °F 26.1 °F 30.9 °F 92% 30.15 in 4.0 mi South 8.1 mph - 0.01 in Snow Light Snow
7:52 AM 33.8 °F 27.7 °F 32.0 °F 93% 30.13 in 4.0 mi SSE 6.9 mph - N/A   Overcast
8:07 AM 33.1 °F 26.9 °F 32.0 °F 96% 30.12 in 5.0 mi SSE 6.9 mph - N/A   Overcast
8:42 AM 33.1 °F 27.7 °F 32.0 °F 96% 30.12 in 6.0 mi SSE 5.8 mph - N/A   Overcast
8:52 AM 33.1 °F 25.5 °F 32.0 °F 96% 30.16 in 3.0 mi SSE 9.2 mph - N/A   Overcast
8:58 AM 33.1 °F 26.1 °F 32.0 °F 96% 30.13 in 2.5 mi SSE 8.1 mph - N/A   Overcast
9:10 AM 33.1 °F 25.5 °F 32.0 °F 96% 30.13 in 3.0 mi SSE 9.2 mph - N/A   Overcast
9:52 AM 34.0 °F 26.0 °F 32.0 °F 92% 30.15 in 5.0 mi SSE 10.4 mph - N/A   Overcast
10:28 AM 34.0 °F 27.2 °F 32.0 °F 92% 30.14 in 6.0 mi South 8.1 mph - N/A   Overcast
10:43 AM 34.0 °F 28.0 °F 33.1 °F 96% 30.14 in 5.0 mi South 6.9 mph - N/A   Overcast
10:52 AM 34.0 °F 28.0 °F 33.1 °F 96% 30.17 in 4.0 mi South 6.9 mph - 0.00 in   Overcast
11:03 AM 34.0 °F 28.0 °F 33.1 °F 96% 30.13 in 2.5 mi SSE 6.9 mph - 0.00 in Rain Light Rain
11:13 AM 34.0 °F 27.2 °F 33.1 °F 96% 30.12 in 2.5 mi SSE 8.1 mph - 0.00 in Snow Light Snow
11:24 AM 34.0 °F 28.0 °F 33.1 °F 96% 30.11 in 3.0 mi SSE 6.9 mph - 0.00 in   Overcast
11:34 AM 34.0 °F 27.2 °F 32.0 °F 92% 30.11 in 4.0 mi SSE 8.1 mph - 0.00 in Snow Light Snow
11:43 AM 34.0 °F 28.0 °F 33.1 °F 96% 30.09 in 4.0 mi SE 6.9 mph - 0.01 in Snow Light Snow
11:52 AM 34.0 °F 27.2 °F 32.0 °F 92% 30.11 in 4.0 mi SE 8.1 mph - 0.01 in Snow Light Snow
12:01 PM 34.0 °F 26.6 °F 33.1 °F 96% 30.08 in 2.0 mi SSE 9.2 mph - 0.00 in Snow Light Snow
12:12 PM 34.0 °F 26.0 °F 33.1 °F 96% 30.07 in 4.0 mi SSE 10.4 mph - 0.00 in Snow Light Snow
12:24 PM 34.0 °F 26.6 °F 33.1 °F 96% 30.07 in 4.0 mi SE 9.2 mph - 0.00 in Snow Light Snow
12:52 PM 34.0 °F 26.6 °F 33.1 °F 96% 30.07 in 4.0 mi SE 9.2 mph - 0.01 in Snow Light Snow
1:17 PM 35.1 °F 28.6 °F 33.1 °F 92% 30.03 in 5.0 mi SSE 8.1 mph - 0.00 in Rain Light Rain
1:30 PM 35.1 °F 27.9 °F 33.1 °F 92% 30.02 in 5.0 mi SSE 9.2 mph - 0.00 in   Overcast
1:52 PM 35.1 °F 27.9 °F 33.1 °F 92% 30.04 in 4.0 mi SE 9.2 mph - 0.00 in   Overcast
2:27 PM 35.1 °F 29.3 °F 34.0 °F 96% 30.00 in 3.0 mi SE 6.9 mph - N/A   Overcast
2:29 PM 35.1 °F 29.3 °F 34.0 °F 96% 30.01 in 3.0 mi SE 6.9 mph - N/A   Overcast
2:39 PM 35.1 °F 30.1 °F 34.0 °F 96% 30.01 in 1.5 mi SE 5.8 mph - N/A   Overcast
2:52 PM 35.1 °F 30.1 °F 34.0 °F 96% 30.03 in 1.5 mi SE 5.8 mph - N/A   Overcast
3:34 PM 35.1 °F 31.0 °F 34.0 °F 96% 30.00 in 1.0 mi East 4.6 mph - N/A   Overcast
3:41 PM 35.1 °F 31.0 °F 34.0 °F 96% 30.00 in 1.0 mi ESE 4.6 mph - N/A   Overcast
3:52 PM 36.0 °F 33.3 °F 34.0 °F 93% 30.03 in 1.0 mi East 3.5 mph - N/A   Overcast
4:34 PM 35.1 °F 31.0 °F 35.1 °F 100% 30.00 in 2.0 mi East 4.6 mph - N/A   Overcast
4:41 PM 35.1 °F 31.0 °F 34.0 °F 96% 30.00 in 1.8 mi East 4.6 mph - N/A   Overcast
4:52 PM 35.6 °F 30.7 °F 33.8 °F 93% 29.99 in 1.8 mi East 5.8 mph - N/A   Overcast
5:11 PM 35.1 °F 30.1 °F 34.0 °F 96% 29.99 in 2.5 mi East 5.8 mph - N/A   Overcast
5:18 PM 35.1 °F 30.1 °F 34.0 °F 96% 29.99 in 3.0 mi East 5.8 mph - N/A   Overcast
5:52 PM 35.1 °F 31.0 °F 34.0 °F 96% 30.02 in 3.0 mi East 4.6 mph - N/A   Overcast
6:35 PM 35.1 °F 31.0 °F 35.1 °F 100% 30.01 in 2.5 mi NE 4.6 mph - N/A   Overcast
6:52 PM 35.1 °F 31.0 °F 35.1 °F 100% 30.04 in 2.0 mi NE 4.6 mph - N/A   Overcast
7:05 PM 35.1 °F 31.0 °F 34.0 °F 96% 30.00 in 1.0 mi ENE 4.6 mph - N/A   Overcast
7:38 PM 35.1 °F 28.6 °F 34.0 °F 96% 30.00 in 1.0 mi East 8.1 mph - N/A   Overcast
7:49 PM 35.6 °F 29.9 °F 33.8 °F 93% 30.00 in 4.0 mi East 6.9 mph - N/A   Overcast
7:52 PM 35.1 °F 30.1 °F 34.0 °F 96% 30.03 in 4.0 mi East 5.8 mph - N/A   Overcast
8:52 PM 35.1 °F 32.2 °F 34.0 °F 96% 30.04 in 8.0 mi ESE 3.5 mph - N/A   Overcast
9:38 PM 35.1 °F 31.0 °F 34.0 °F 96% 30.01 in 7.0 mi NE 4.6 mph - N/A   Overcast
9:49 PM 35.6 °F 31.7 °F 33.8 °F 93% 30.01 in 7.0 mi NE 4.6 mph - N/A   Overcast
9:52 PM 35.1 °F 31.0 °F 34.0 °F 96% 30.04 in 7.0 mi NE 4.6 mph - N/A   Overcast
10:52 PM 35.1 °F 30.1 °F 34.0 °F 96% 30.06 in 4.0 mi NE 5.8 mph - N/A   Overcast
11:10 PM 35.1 °F 30.1 °F 34.0 °F 96% 30.03 in 2.5 mi NE 5.8 mph - N/A   Overcast
11:22 PM 35.1 °F 28.6 °F 34.0 °F 96% 30.03 in 0.5 mi NNE 8.1 mph - N/A Fog Fog
11:52 PM 34.0 °F 26.0 °F 33.1 °F 96% 30.07 in 0.5 mi NNE 10.4 mph - N/A Fog Fog